Showing default

CANX-5, 40056

Orbit data source: Space-Track

CANX-5, 40056 is a payload satellite owned by UTIAS-SFL (CA) in SSO that was launched on Mon, 30 Jun 2014 UTC via a PSLV launch vehicle from the Sirharikota (SRI). Payloads include a variety of satellites, spacecraft, and rockets equipped with specific instruments for various scientific and technological missions. These include communications satellites like Starlink; space stations such as the ISS; scientific satellites like the Hubble; Earth observation satellites from companies like Planet Labs, Umbra, and HawkEye 360; GPS; miniature CubeSats for education and research; and military/defense satellites.

Loading next visibility...
CANX-5 details
Identifier
40056, 2014-034D
Orbit
SSO
Last TLE update10 hours ago
Origin
Flag of CAUTIAS-SFL (CA)
ManufacturerUTIAS-SFL
MissionOperational Amateur Technology
Bus & MotorGNB, Unknown motor
Mass7 kg wet, 7 kg dry
Launch date (UTC)
2014-06-30 (10 years ago)
Launch vehicle
PSLV
Launch site
Sirharikota (SRI)
Object type
Payload
Rocket body
Debris
Shape & HBRBox + 4 Ant, 0.2 m
Radar Cross Section0.060 m², Medium (>0.1 m² and < 1m²)

Expand to show TLE details & history

TLE from 10 hours ago
0 CANX-5
1 40056U 14034D   24361.16945537  .00003330  00000-0  45353-3 0  9995
2 40056  98.3774 203.9725 0012222 301.1348  58.8663 14.79406001555735
Epoch: 2024-12-26T04:04Z
Definitive object data (Epoch: 2024-12-26T04:04:00.943Z)
Latitude-0.00004°
Longitude47.81587°
Altitude629.783 km
Speed7.546 km/s
True Right ascension13h 35m 53s
True Declination0° 00' 00"
Sunlit
Object was in daylight at TLE epoch
Visualization TLE readout
Latitude31.09626°
Longitude-126.66412°
Altitude642.696 km
Speed7.535 km/s
Apparent Right ascension01h 54m 35s
Apparent Declination-2° 26' 01"
Sunlit
Object is in full shadow
Visualization observer readout
Local Sidereal Time13:50:27
Azimuth358.299° N
Elevation-52.506°
Doppler factor1
Orbital elements
Apogee altitude636.827 km
Perigee altitude619.7 km
Semi-major axis7,006.4 km
Eccentricity0.0012222
Inclination98.3774°
RAAN203.9725°
Arg. of periapsis301.1348°
True anomaly58.98628°
Mean anomaly58.8663°
Eccentric anomaly58.92628°
Mean motion3.70084 °/min
BSTAR0.00045353
Orbital period97.28 mins
Loading maneuver chart data...
Loading historical data...
Loading historical data...
Loading historical data...
Loading historical data...
Loading historical data...
Loading historical data...
Loading historical data...
Other satellites on launch #34 in the year 2014 (2014-06-30 UTC)

CANX-5 Visibility forecast

Observer location: undefined°, undefined

Span
Click to sort rows by Start time (UTC) header in descending order
Start Az.
Max El. time (UTC)
Max El. Az.
Max El.
End time (UTC)
End Az.
6 mins2024-12-27 01:45:36.107Z49.943° ENE2024-12-27 01:48:36.107Z99.195° ESE20.357°2024-12-27 01:51:36.107Z144.269° SSE
5 mins2024-12-27 03:22:36.107Z336.475° NNW2024-12-27 03:24:36.107Z293.015° NW28.048°2024-12-27 03:27:36.107Z235.063° WSW
4 mins2024-12-27 12:42:36.107Z88.092° E2024-12-27 12:43:36.107Z70.964° E17.77°2024-12-27 12:46:36.107Z24.686° NE
6 mins2024-12-27 14:17:36.107Z206.327° SW2024-12-27 14:19:36.107Z251.627° W31.737°2024-12-27 14:23:36.107Z328.568° NNW
|